Year,Month,Day,Hour,Minute,Value (Times are PST for temperature in C)
2017,08,22,00,00,16.90
2017,08,22,00,01,16.90
2017,08,22,00,02,16.90
2017,08,22,00,03,16.90
2017,08,22,00,04,16.90
2017,08,22,00,05,16.90
2017,08,22,00,06,16.80
2017,08,22,00,07,16.80
2017,08,22,00,08,16.80
2017,08,22,00,09,16.80
2017,08,22,00,10,16.80
2017,08,22,00,11,16.70
2017,08,22,00,12,16.70
2017,08,22,00,13,16.70
2017,08,22,00,14,16.70
2017,08,22,00,15,16.70
2017,08,22,00,16,16.70
2017,08,22,00,17,16.60
2017,08,22,00,18,16.60
2017,08,22,00,19,16.60
2017,08,22,00,20,16.60
2017,08,22,00,21,16.60
2017,08,22,00,22,16.60
2017,08,22,00,23,16.60
2017,08,22,00,24,16.50
2017,08,22,00,25,16.50
2017,08,22,00,26,16.50
2017,08,22,00,27,16.50
2017,08,22,00,28,16.50
2017,08,22,00,29,16.50
2017,08,22,00,30,16.50
2017,08,22,00,31,16.50
2017,08,22,00,32,16.50
2017,08,22,00,33,16.40
2017,08,22,00,34,16.40
2017,08,22,00,35,16.40
2017,08,22,00,36,16.40
2017,08,22,00,37,16.40
2017,08,22,00,38,16.40
2017,08,22,00,39,16.40
2017,08,22,00,40,16.40
2017,08,22,00,41,16.40
2017,08,22,00,42,16.40
2017,08,22,00,43,16.40
2017,08,22,00,44,16.40
2017,08,22,00,45,16.40
2017,08,22,00,46,16.40
2017,08,22,00,47,16.40
2017,08,22,00,48,16.40
2017,08,22,00,49,16.30
2017,08,22,00,50,16.30
2017,08,22,00,51,16.30
2017,08,22,00,52,16.30
2017,08,22,00,53,16.30
2017,08,22,00,54,16.30
2017,08,22,00,55,16.30
2017,08,22,00,56,16.30
2017,08,22,00,57,16.30
2017,08,22,00,58,16.30
2017,08,22,00,59,16.30
2017,08,22,01,00,16.30
2017,08,22,01,01,16.30
2017,08,22,01,02,16.30
2017,08,22,01,03,16.30
2017,08,22,01,04,16.30
2017,08,22,01,05,16.30
2017,08,22,01,06,16.30
2017,08,22,01,07,16.30
2017,08,22,01,08,16.30
2017,08,22,01,09,16.30
2017,08,22,01,10,16.30
2017,08,22,01,11,16.30
2017,08,22,01,12,16.30
2017,08,22,01,13,16.30
2017,08,22,01,14,16.30
2017,08,22,01,15,16.30
2017,08,22,01,16,16.30
2017,08,22,01,17,16.20
2017,08,22,01,18,16.20
2017,08,22,01,19,16.20
2017,08,22,01,20,16.20
2017,08,22,01,21,16.20
2017,08,22,01,22,16.20
2017,08,22,01,23,16.20
2017,08,22,01,24,16.20
2017,08,22,01,25,16.20
2017,08,22,01,26,16.20
2017,08,22,01,27,16.20
2017,08,22,01,28,16.20
2017,08,22,01,29,16.10
2017,08,22,01,30,16.20
2017,08,22,01,31,16.20
2017,08,22,01,32,16.10
2017,08,22,01,33,16.10
2017,08,22,01,34,16.10
2017,08,22,01,35,16.10
2017,08,22,01,36,16.10
2017,08,22,01,37,16.10
2017,08,22,01,38,16.10
2017,08,22,01,39,16.00
2017,08,22,01,40,16.00
2017,08,22,01,41,16.00
2017,08,22,01,42,16.00
2017,08,22,01,43,16.00
2017,08,22,01,44,16.00
2017,08,22,01,45,16.00
2017,08,22,01,46,16.00
2017,08,22,01,47,16.00
2017,08,22,01,48,16.00
2017,08,22,01,49,16.00
2017,08,22,01,50,16.00
2017,08,22,01,51,16.00
2017,08,22,01,52,16.00
2017,08,22,01,53,15.90
2017,08,22,01,54,15.90
2017,08,22,01,55,15.90
2017,08,22,01,56,15.90
2017,08,22,01,57,15.90
2017,08,22,01,58,15.90
2017,08,22,01,59,15.90
2017,08,22,02,00,15.90
2017,08,22,02,01,15.90
2017,08,22,02,02,15.90
2017,08,22,02,03,15.90
2017,08,22,02,04,15.90
2017,08,22,02,05,15.90
2017,08,22,02,06,15.90
2017,08,22,02,07,15.90
2017,08,22,02,08,15.90
2017,08,22,02,09,15.90
2017,08,22,02,10,15.90
2017,08,22,02,11,15.90
2017,08,22,02,12,15.90
2017,08,22,02,13,15.90
2017,08,22,02,14,15.90
2017,08,22,02,15,15.90
2017,08,22,02,16,15.90
2017,08,22,02,17,15.90
2017,08,22,02,18,15.90
2017,08,22,02,19,15.90
2017,08,22,02,20,15.90
2017,08,22,02,21,15.80
2017,08,22,02,22,15.80
2017,08,22,02,23,15.80
2017,08,22,02,24,15.80
2017,08,22,02,25,15.80
2017,08,22,02,26,15.80
2017,08,22,02,27,15.80
2017,08,22,02,28,15.80
2017,08,22,02,29,15.80
2017,08,22,02,30,15.80
2017,08,22,02,31,15.80
2017,08,22,02,32,15.80
2017,08,22,02,33,15.80
2017,08,22,02,34,15.70
2017,08,22,02,35,15.70
2017,08,22,02,36,15.70
2017,08,22,02,37,15.70
2017,08,22,02,38,15.70
2017,08,22,02,39,15.70
2017,08,22,02,40,15.70
2017,08,22,02,41,15.70
2017,08,22,02,42,15.70
2017,08,22,02,43,15.70
2017,08,22,02,44,15.70
2017,08,22,02,45,15.70
2017,08,22,02,46,15.70
2017,08,22,02,47,15.70
2017,08,22,02,48,15.70
2017,08,22,02,49,15.70
2017,08,22,02,50,15.70
2017,08,22,02,51,15.70
2017,08,22,02,52,15.70
2017,08,22,02,53,15.70
2017,08,22,02,54,15.70
2017,08,22,02,55,15.70
2017,08,22,02,56,15.70
2017,08,22,02,57,15.70
2017,08,22,02,58,15.70
2017,08,22,02,59,15.70
2017,08,22,03,00,15.60
2017,08,22,03,01,15.60
2017,08,22,03,02,15.60
2017,08,22,03,03,15.60
2017,08,22,03,04,15.60
2017,08,22,03,05,15.60
2017,08,22,03,06,15.60
2017,08,22,03,07,15.50
2017,08,22,03,08,15.50
2017,08,22,03,09,15.50
2017,08,22,03,10,15.50
2017,08,22,03,11,15.50
2017,08,22,03,12,15.50
2017,08,22,03,13,15.50
2017,08,22,03,14,15.50
2017,08,22,03,15,15.50
2017,08,22,03,16,15.50
2017,08,22,03,17,15.50
2017,08,22,03,18,15.50
2017,08,22,03,19,15.50
2017,08,22,03,20,15.50
2017,08,22,03,21,15.50
2017,08,22,03,22,15.50
2017,08,22,03,23,15.50
2017,08,22,03,24,15.50
2017,08,22,03,25,15.50
2017,08,22,03,26,15.50
2017,08,22,03,27,15.50
2017,08,22,03,28,15.50
2017,08,22,03,29,15.50
2017,08,22,03,30,15.50
2017,08,22,03,31,15.50
2017,08,22,03,32,15.40
2017,08,22,03,33,15.40
2017,08,22,03,34,15.40
2017,08,22,03,35,15.40
2017,08,22,03,36,15.40
2017,08,22,03,37,15.40
2017,08,22,03,38,15.40
2017,08,22,03,39,15.40
2017,08,22,03,40,15.40
2017,08,22,03,41,15.40
2017,08,22,03,42,15.40
2017,08,22,03,43,15.40
2017,08,22,03,44,15.40
2017,08,22,03,45,15.40
2017,08,22,03,46,15.40
2017,08,22,03,47,15.40
2017,08,22,03,48,15.40
2017,08,22,03,49,15.40
2017,08,22,03,50,15.40
2017,08,22,03,51,15.40
2017,08,22,03,52,15.40
2017,08,22,03,53,15.30
2017,08,22,03,54,15.30
2017,08,22,03,55,15.30
2017,08,22,03,56,15.30
2017,08,22,03,57,15.30
2017,08,22,03,58,15.30
2017,08,22,03,59,15.30
2017,08,22,04,00,15.30
2017,08,22,04,01,15.20
2017,08,22,04,02,15.20
2017,08,22,04,03,15.20
2017,08,22,04,04,15.20
2017,08,22,04,05,15.20
2017,08,22,04,06,15.20
2017,08,22,04,07,15.20
2017,08,22,04,08,15.20
2017,08,22,04,09,15.20
2017,08,22,04,10,15.20
2017,08,22,04,11,15.20
2017,08,22,04,12,15.20
2017,08,22,04,13,15.20
2017,08,22,04,14,15.20
2017,08,22,04,15,15.20
2017,08,22,04,16,15.20
2017,08,22,04,17,15.20
2017,08,22,04,18,15.20
2017,08,22,04,19,15.10
2017,08,22,04,20,15.10
2017,08,22,04,21,15.10
2017,08,22,04,22,15.10
2017,08,22,04,23,15.10
2017,08,22,04,24,15.10
2017,08,22,04,25,15.10
2017,08,22,04,26,15.10
2017,08,22,04,27,15.10
2017,08,22,04,28,15.10
2017,08,22,04,29,15.10
2017,08,22,04,30,15.10
2017,08,22,04,31,15.00
2017,08,22,04,32,15.00
2017,08,22,04,33,15.00
2017,08,22,04,34,15.00
2017,08,22,04,35,15.00
2017,08,22,04,36,15.00
2017,08,22,04,37,15.00
2017,08,22,04,38,15.00
2017,08,22,04,39,14.90
2017,08,22,04,40,14.90
2017,08,22,04,41,15.00
2017,08,22,04,42,15.00
2017,08,22,04,43,15.00
2017,08,22,04,44,15.00
2017,08,22,04,45,15.00
2017,08,22,04,46,15.00
2017,08,22,04,47,15.00
2017,08,22,04,48,15.00
2017,08,22,04,49,15.00
2017,08,22,04,50,15.00
2017,08,22,04,51,15.10
2017,08,22,04,52,15.10
2017,08,22,04,53,15.10
2017,08,22,04,54,15.00
2017,08,22,04,55,15.00
2017,08,22,04,56,15.00
2017,08,22,04,57,15.00
2017,08,22,04,58,15.00
2017,08,22,04,59,15.00
2017,08,22,05,00,15.00
2017,08,22,05,01,15.00
2017,08,22,05,02,15.00
2017,08,22,05,03,15.00
2017,08,22,05,04,15.00
2017,08,22,05,05,15.00
2017,08,22,05,06,15.00
2017,08,22,05,07,15.00
2017,08,22,05,08,15.00
2017,08,22,05,09,15.00
2017,08,22,05,10,15.00
2017,08,22,05,11,15.00
2017,08,22,05,12,15.00
2017,08,22,05,13,15.00
2017,08,22,05,14,15.00
2017,08,22,05,15,15.00
2017,08,22,05,16,15.00
2017,08,22,05,17,15.00
2017,08,22,05,18,15.00
2017,08,22,05,19,15.00
2017,08,22,05,20,15.00
2017,08,22,05,21,15.00
2017,08,22,05,22,15.00
2017,08,22,05,23,15.00
2017,08,22,05,24,14.90
2017,08,22,05,25,14.90
2017,08,22,05,26,14.90
2017,08,22,05,27,14.90
2017,08,22,05,28,14.90
2017,08,22,05,29,14.90
2017,08,22,05,30,14.90
2017,08,22,05,31,14.90
2017,08,22,05,32,14.90
2017,08,22,05,33,14.90
2017,08,22,05,34,14.90
2017,08,22,05,35,14.90
2017,08,22,05,36,14.90
2017,08,22,05,37,14.90
2017,08,22,05,38,14.90
2017,08,22,05,39,14.90
2017,08,22,05,40,14.90
2017,08,22,05,41,14.90
2017,08,22,05,42,14.90
2017,08,22,05,43,14.90
2017,08,22,05,44,14.80
2017,08,22,05,45,14.80
2017,08,22,05,46,14.80
2017,08,22,05,47,14.80
2017,08,22,05,48,14.80
2017,08,22,05,49,14.80
2017,08,22,05,50,14.80
2017,08,22,05,51,14.80
2017,08,22,05,52,14.80
2017,08,22,05,53,14.80
2017,08,22,05,54,14.80
2017,08,22,05,55,14.80
2017,08,22,05,56,14.80
2017,08,22,05,57,14.80
2017,08,22,05,58,14.80
2017,08,22,05,59,14.80
2017,08,22,06,00,14.80
2017,08,22,06,01,14.80
2017,08,22,06,02,14.80
2017,08,22,06,03,14.70
2017,08,22,06,04,14.70
2017,08,22,06,05,14.70
2017,08,22,06,06,14.70
2017,08,22,06,07,14.70
2017,08,22,06,08,14.70
2017,08,22,06,09,14.60
2017,08,22,06,10,14.60
2017,08,22,06,11,14.60
2017,08,22,06,12,14.60
2017,08,22,06,13,14.60
2017,08,22,06,14,14.60
2017,08,22,06,15,14.60
2017,08,22,06,16,14.60
2017,08,22,06,17,14.60
2017,08,22,06,18,14.60
2017,08,22,06,19,14.60
2017,08,22,06,20,14.60
2017,08,22,06,21,14.60
2017,08,22,06,22,14.60
2017,08,22,06,23,14.60
2017,08,22,06,24,14.60
2017,08,22,06,25,14.60
2017,08,22,06,26,14.60
2017,08,22,06,27,14.60
2017,08,22,06,28,14.70
2017,08,22,06,29,14.70
2017,08,22,06,30,14.70
2017,08,22,06,31,14.70
2017,08,22,06,32,14.70
2017,08,22,06,33,14.70
2017,08,22,06,34,14.70
2017,08,22,06,35,14.70
2017,08,22,06,36,14.70
2017,08,22,06,37,14.70
2017,08,22,06,38,14.70
2017,08,22,06,39,14.70
2017,08,22,06,40,14.70
2017,08,22,06,41,14.70
2017,08,22,06,42,14.70
2017,08,22,06,43,14.70
2017,08,22,06,44,14.70
2017,08,22,06,45,14.70
2017,08,22,06,46,14.70
2017,08,22,06,47,14.70
2017,08,22,06,48,14.70
2017,08,22,06,49,14.80
2017,08,22,06,50,14.80
2017,08,22,06,51,14.90
2017,08,22,06,52,14.90
2017,08,22,06,53,15.00
2017,08,22,06,54,15.00
2017,08,22,06,55,15.10
2017,08,22,06,56,15.10
2017,08,22,06,57,15.20
2017,08,22,06,58,15.20
2017,08,22,06,59,15.20
2017,08,22,07,00,15.30
2017,08,22,07,01,15.30
2017,08,22,07,02,15.30
2017,08,22,07,03,15.40
2017,08,22,07,04,15.40
2017,08,22,07,05,15.50
2017,08,22,07,06,15.60
2017,08,22,07,07,15.60
2017,08,22,07,08,15.70
2017,08,22,07,09,15.80
2017,08,22,07,10,15.80
2017,08,22,07,11,15.90
2017,08,22,07,12,16.00
2017,08,22,07,13,16.00
2017,08,22,07,14,16.10
2017,08,22,07,15,16.10
2017,08,22,07,16,16.10
2017,08,22,07,17,16.20
2017,08,22,07,18,16.20
2017,08,22,07,19,16.20
2017,08,22,07,20,16.20
2017,08,22,07,21,16.30
2017,08,22,07,22,16.30
2017,08,22,07,23,16.30
2017,08,22,07,24,16.30
2017,08,22,07,25,16.30
2017,08,22,07,26,16.30
2017,08,22,07,27,16.30
2017,08,22,07,28,16.40
2017,08,22,07,29,16.40
2017,08,22,07,30,16.50
2017,08,22,07,31,16.50
2017,08,22,07,32,16.60
2017,08,22,07,33,16.70
2017,08,22,07,34,16.80
2017,08,22,07,35,16.90
2017,08,22,07,36,17.00
2017,08,22,07,37,17.10
2017,08,22,07,38,17.20
2017,08,22,07,39,17.40
2017,08,22,07,40,17.50
2017,08,22,07,41,17.60
2017,08,22,07,42,17.70
2017,08,22,07,43,17.80
2017,08,22,07,44,17.90
2017,08,22,07,45,18.00
2017,08,22,07,46,18.00
2017,08,22,07,47,18.10
2017,08,22,07,48,18.10
2017,08,22,07,49,18.20
2017,08,22,07,50,18.20
2017,08,22,07,51,18.30
2017,08,22,07,52,18.40
2017,08,22,07,53,18.40
2017,08,22,07,54,18.50
2017,08,22,07,55,18.60
2017,08,22,07,56,18.70
2017,08,22,07,57,18.80
2017,08,22,07,58,18.90
2017,08,22,07,59,18.90
2017,08,22,08,00,19.00
2017,08,22,08,01,19.10
2017,08,22,08,02,19.20
2017,08,22,08,03,19.30
2017,08,22,08,04,19.40
2017,08,22,08,05,19.50
2017,08,22,08,06,19.70
2017,08,22,08,07,19.80
2017,08,22,08,08,19.90
2017,08,22,08,09,20.10
2017,08,22,08,10,20.30
2017,08,22,08,11,20.40
2017,08,22,08,12,20.60
2017,08,22,08,13,20.80
2017,08,22,08,14,20.90
2017,08,22,08,15,21.10
2017,08,22,08,16,21.20
2017,08,22,08,17,21.30
2017,08,22,08,18,21.40
2017,08,22,08,19,21.50
2017,08,22,08,20,21.70
2017,08,22,08,21,21.80
2017,08,22,08,22,21.80
2017,08,22,08,23,21.90
2017,08,22,08,24,21.90
2017,08,22,08,25,21.80
2017,08,22,08,26,21.80
2017,08,22,08,27,21.80
2017,08,22,08,28,21.70
2017,08,22,08,29,21.70
2017,08,22,08,30,21.70
2017,08,22,08,31,21.70
2017,08,22,08,32,21.60
2017,08,22,08,33,21.70
2017,08,22,08,34,21.70
2017,08,22,08,35,21.70
2017,08,22,08,36,21.70
2017,08,22,08,37,21.80
2017,08,22,08,38,21.80
2017,08,22,08,39,21.80
2017,08,22,08,40,21.80
2017,08,22,08,41,21.80
2017,08,22,08,42,21.80
2017,08,22,08,43,21.80
2017,08,22,08,44,21.80
2017,08,22,08,45,21.80
2017,08,22,08,46,21.80
2017,08,22,08,47,21.80
2017,08,22,08,48,21.90
2017,08,22,08,49,21.90
2017,08,22,08,50,21.90
2017,08,22,08,51,22.00
2017,08,22,08,52,22.00
2017,08,22,08,53,22.10
2017,08,22,08,54,22.10
2017,08,22,08,55,22.10
2017,08,22,08,56,22.20
2017,08,22,08,57,22.20
2017,08,22,08,58,22.20
2017,08,22,08,59,22.20
2017,08,22,09,00,22.20
2017,08,22,09,01,22.30
2017,08,22,09,02,22.30
2017,08,22,09,03,22.30
2017,08,22,09,04,22.40
2017,08,22,09,05,22.50
2017,08,22,09,06,22.50
2017,08,22,09,07,22.60
2017,08,22,09,08,22.70
2017,08,22,09,09,22.80
2017,08,22,09,10,22.80
2017,08,22,09,11,22.90
2017,08,22,09,12,23.00
2017,08,22,09,13,23.10
2017,08,22,09,14,23.20
2017,08,22,09,15,23.20
2017,08,22,09,16,23.20
2017,08,22,09,17,23.30
2017,08,22,09,18,23.30
2017,08,22,09,19,23.20
2017,08,22,09,20,23.20
2017,08,22,09,21,23.20
2017,08,22,09,22,23.20
2017,08,22,09,23,23.20
2017,08,22,09,24,23.20
2017,08,22,09,25,23.30
2017,08,22,09,26,23.30
2017,08,22,09,27,23.40
2017,08,22,09,28,23.40
2017,08,22,09,29,23.50
2017,08,22,09,30,23.60
2017,08,22,09,31,23.70
2017,08,22,09,32,23.80
2017,08,22,09,33,23.90
2017,08,22,09,34,24.00
2017,08,22,09,35,24.10
2017,08,22,09,36,24.10
2017,08,22,09,37,24.20
2017,08,22,09,38,24.20
2017,08,22,09,39,24.30
2017,08,22,09,40,24.30
2017,08,22,09,41,24.40
2017,08,22,09,42,24.40
2017,08,22,09,43,24.50
2017,08,22,09,44,24.50
2017,08,22,09,45,24.60
2017,08,22,09,46,24.60
2017,08,22,09,47,24.70
2017,08,22,09,48,24.70
2017,08,22,09,49,24.70
2017,08,22,09,50,24.70
2017,08,22,09,51,24.70
2017,08,22,09,52,24.70
2017,08,22,09,53,24.70
2017,08,22,09,54,24.70
2017,08,22,09,55,24.70
2017,08,22,09,56,24.70
2017,08,22,09,57,24.70
2017,08,22,09,58,24.70
2017,08,22,09,59,24.80
2017,08,22,10,00,24.80
2017,08,22,10,01,24.80
2017,08,22,10,02,24.90
2017,08,22,10,03,24.90
2017,08,22,10,04,24.90
2017,08,22,10,05,25.00
2017,08,22,10,06,25.10
2017,08,22,10,07,25.10
2017,08,22,10,08,25.10
2017,08,22,10,09,25.10
2017,08,22,10,10,25.10
2017,08,22,10,11,25.10
2017,08,22,10,12,25.10
2017,08,22,10,13,25.10
2017,08,22,10,14,25.00
2017,08,22,10,15,25.00
2017,08,22,10,16,24.90
2017,08,22,10,17,24.80
2017,08,22,10,18,24.80
2017,08,22,10,19,24.80
2017,08,22,10,20,24.80
2017,08,22,10,21,24.80
2017,08,22,10,22,24.80
2017,08,22,10,23,24.90
2017,08,22,10,24,24.90
2017,08,22,10,25,25.00
2017,08,22,10,26,25.00
2017,08,22,10,27,25.10
2017,08,22,10,28,25.10
2017,08,22,10,29,25.20
2017,08,22,10,30,25.20
2017,08,22,10,31,25.20
2017,08,22,10,32,25.20
2017,08,22,10,33,25.20
2017,08,22,10,34,25.10
2017,08,22,10,35,25.10
2017,08,22,10,36,25.10
2017,08,22,10,37,25.20
2017,08,22,10,38,25.20
2017,08,22,10,39,25.20
2017,08,22,10,40,25.20
2017,08,22,10,41,25.20
2017,08,22,10,42,25.10
2017,08,22,10,43,25.10
2017,08,22,10,44,25.00
2017,08,22,10,45,25.00
2017,08,22,10,46,24.80
2017,08,22,10,47,24.70
2017,08,22,10,48,24.60
2017,08,22,10,49,24.50
2017,08,22,10,50,24.50
2017,08,22,10,51,24.50
2017,08,22,10,52,24.40
2017,08,22,10,53,24.40
2017,08,22,10,54,24.40
2017,08,22,10,55,24.30
2017,08,22,10,56,24.20
2017,08,22,10,57,24.20
2017,08,22,10,58,24.30
2017,08,22,10,59,24.30
2017,08,22,11,00,24.30
2017,08,22,11,01,24.30
2017,08,22,11,02,24.30
2017,08,22,11,03,24.30
2017,08,22,11,04,24.30
2017,08,22,11,05,24.40
2017,08,22,11,06,24.40
2017,08,22,11,07,24.40
2017,08,22,11,08,24.40
2017,08,22,11,09,24.40
2017,08,22,11,10,24.40
2017,08,22,11,11,24.40
2017,08,22,11,12,24.40
2017,08,22,11,13,24.40
2017,08,22,11,14,24.30
2017,08,22,11,15,24.40
2017,08,22,11,16,24.40
2017,08,22,11,17,24.40
2017,08,22,11,18,24.30
2017,08,22,11,19,24.30
2017,08,22,11,20,24.30
2017,08,22,11,21,24.30
2017,08,22,11,22,24.20
2017,08,22,11,23,24.30
2017,08,22,11,24,24.30
2017,08,22,11,25,24.30
2017,08,22,11,26,24.30
2017,08,22,11,27,24.30
2017,08,22,11,28,24.20
2017,08,22,11,29,24.10
2017,08,22,11,30,24.00
2017,08,22,11,31,23.90
2017,08,22,11,32,23.90
2017,08,22,11,33,23.90
2017,08,22,11,34,23.90
2017,08,22,11,35,23.90
2017,08,22,11,36,24.00
2017,08,22,11,37,24.00
2017,08,22,11,38,24.10
2017,08,22,11,39,24.20
2017,08,22,11,40,24.20
2017,08,22,11,41,24.10
2017,08,22,11,42,24.10
2017,08,22,11,43,24.20
2017,08,22,11,44,24.30
2017,08,22,11,45,24.30
2017,08,22,11,46,24.30
2017,08,22,11,47,24.40
2017,08,22,11,48,24.50
2017,08,22,11,49,24.60
2017,08,22,11,50,24.70
2017,08,22,11,51,24.80
2017,08,22,11,52,24.90
2017,08,22,11,53,24.90
2017,08,22,11,54,24.80
2017,08,22,11,55,24.60
2017,08,22,11,56,24.40
2017,08,22,11,57,24.30
2017,08,22,11,58,24.20
2017,08,22,11,59,24.20
2017,08,22,12,00,24.20
2017,08,22,12,01,24.20
2017,08,22,12,02,24.20
2017,08,22,12,03,24.20
2017,08,22,12,04,24.10
2017,08,22,12,05,24.10
2017,08,22,12,06,24.10
2017,08,22,12,07,24.10
2017,08,22,12,08,24.10
2017,08,22,12,09,24.10
2017,08,22,12,10,24.00
2017,08,22,12,11,24.00
2017,08,22,12,12,24.00
2017,08,22,12,13,24.00
2017,08,22,12,14,24.10
2017,08,22,12,15,24.10
2017,08,22,12,16,24.20
2017,08,22,12,17,24.20
2017,08,22,12,18,24.30
2017,08,22,12,19,24.30
2017,08,22,12,20,24.40
2017,08,22,12,21,24.50
2017,08,22,12,22,24.50
2017,08,22,12,23,24.50
2017,08,22,12,24,24.60
2017,08,22,12,25,24.60
2017,08,22,12,26,24.60
2017,08,22,12,27,24.60
2017,08,22,12,28,24.70
2017,08,22,12,29,24.70
2017,08,22,12,30,24.70
2017,08,22,12,31,24.70
2017,08,22,12,32,24.70
2017,08,22,12,33,24.60
2017,08,22,12,34,24.60
2017,08,22,12,35,24.60
2017,08,22,12,36,24.60
2017,08,22,12,37,24.50
2017,08,22,12,38,24.50
2017,08,22,12,39,24.50
2017,08,22,12,40,24.40
2017,08,22,12,41,24.40
2017,08,22,12,42,24.50
2017,08,22,12,43,24.60
2017,08,22,12,44,24.60
2017,08,22,12,45,24.60
2017,08,22,12,46,24.60
2017,08,22,12,47,24.60
2017,08,22,12,48,24.70
2017,08,22,12,49,24.80
2017,08,22,12,50,24.80
2017,08,22,12,51,24.90
2017,08,22,12,52,24.90
2017,08,22,12,53,25.00
2017,08,22,12,54,25.10
2017,08,22,12,55,25.20
2017,08,22,12,56,25.30
2017,08,22,12,57,25.40
2017,08,22,12,58,25.60
2017,08,22,12,59,25.80
2017,08,22,13,00,25.90
2017,08,22,13,01,26.00
2017,08,22,13,02,26.10
2017,08,22,13,03,26.20
2017,08,22,13,04,26.40
2017,08,22,13,05,26.50
2017,08,22,13,06,26.60
2017,08,22,13,07,26.70
2017,08,22,13,08,26.80
2017,08,22,13,09,26.80
2017,08,22,13,10,26.80
2017,08,22,13,11,26.80
2017,08,22,13,12,26.80
2017,08,22,13,13,26.70
2017,08,22,13,14,26.60
2017,08,22,13,15,26.60
2017,08,22,13,16,26.60
2017,08,22,13,17,26.60
2017,08,22,13,18,26.70
2017,08,22,13,19,26.70
2017,08,22,13,20,26.70
2017,08,22,13,21,26.70
2017,08,22,13,22,26.80
2017,08,22,13,23,26.80
2017,08,22,13,24,26.70
2017,08,22,13,25,26.70
2017,08,22,13,26,26.70
2017,08,22,13,27,26.60
2017,08,22,13,28,26.60
2017,08,22,13,29,26.60
2017,08,22,13,30,26.60
2017,08,22,13,31,26.60
2017,08,22,13,32,26.60
2017,08,22,13,33,26.50
2017,08,22,13,34,26.50
2017,08,22,13,35,26.40
2017,08,22,13,36,26.40
2017,08,22,13,37,26.40
2017,08,22,13,38,26.50
2017,08,22,13,39,26.60
2017,08,22,13,40,26.70
2017,08,22,13,41,26.80
2017,08,22,13,42,26.80
2017,08,22,13,43,26.90
2017,08,22,13,44,27.00
2017,08,22,13,45,27.20
2017,08,22,13,46,27.30
2017,08,22,13,47,27.40
2017,08,22,13,48,27.50
2017,08,22,13,49,27.60
2017,08,22,13,50,27.50
2017,08,22,13,51,27.50
2017,08,22,13,52,27.40
2017,08,22,13,53,27.40
2017,08,22,13,54,27.40
2017,08,22,13,55,27.40
2017,08,22,13,56,27.40
2017,08,22,13,57,27.50
2017,08,22,13,58,27.50
2017,08,22,13,59,27.60
2017,08,22,14,00,27.60
2017,08,22,14,01,27.60
2017,08,22,14,02,27.60
2017,08,22,14,03,27.60
2017,08,22,14,04,27.70
2017,08,22,14,05,27.80
2017,08,22,14,06,27.90
2017,08,22,14,07,27.90
2017,08,22,14,08,28.00
2017,08,22,14,09,28.10
2017,08,22,14,10,28.10
2017,08,22,14,11,28.10
2017,08,22,14,12,28.10
2017,08,22,14,13,28.10
2017,08,22,14,14,28.10
2017,08,22,14,15,28.20
2017,08,22,14,16,28.20
2017,08,22,14,17,28.30
2017,08,22,14,18,28.40
2017,08,22,14,19,28.40
2017,08,22,14,20,28.40
2017,08,22,14,21,28.40
2017,08,22,14,22,28.40
2017,08,22,14,23,28.50
2017,08,22,14,24,28.60
2017,08,22,14,25,28.60
2017,08,22,14,26,28.60
2017,08,22,14,27,28.60
2017,08,22,14,28,28.60
2017,08,22,14,29,28.60
2017,08,22,14,30,28.50
2017,08,22,14,31,28.40
2017,08,22,14,32,28.40
2017,08,22,14,33,28.50
2017,08,22,14,34,28.60
2017,08,22,14,35,28.70
2017,08,22,14,36,28.70
2017,08,22,14,37,28.70
2017,08,22,14,38,28.70
2017,08,22,14,39,28.80
2017,08,22,14,40,28.80
2017,08,22,14,41,28.90
2017,08,22,14,42,28.90
2017,08,22,14,43,28.90
2017,08,22,14,44,29.00
2017,08,22,14,45,29.10
2017,08,22,14,46,29.10
2017,08,22,14,47,29.10
2017,08,22,14,48,29.20
2017,08,22,14,49,29.20
2017,08,22,14,50,29.30
2017,08,22,14,51,29.30
2017,08,22,14,52,29.40
2017,08,22,14,53,29.40
2017,08,22,14,54,29.40
2017,08,22,14,55,29.30
2017,08,22,14,56,29.30
2017,08,22,14,57,29.20
2017,08,22,14,58,29.20
2017,08,22,14,59,29.20
2017,08,22,15,00,29.20
2017,08,22,15,01,29.20
2017,08,22,15,02,29.30
2017,08,22,15,03,29.40
2017,08,22,15,04,29.50
2017,08,22,15,05,29.60
2017,08,22,15,06,29.60
2017,08,22,15,07,29.70
2017,08,22,15,08,29.70
2017,08,22,15,09,29.80
2017,08,22,15,10,29.80
2017,08,22,15,11,29.90
2017,08,22,15,12,29.90
2017,08,22,15,13,29.90
2017,08,22,15,14,29.90
2017,08,22,15,15,29.90
2017,08,22,15,16,29.90
2017,08,22,15,17,29.80
2017,08,22,15,18,29.80
2017,08,22,15,19,29.80
2017,08,22,15,20,29.70
2017,08,22,15,21,29.60
2017,08,22,15,22,29.60
2017,08,22,15,23,29.60
2017,08,22,15,24,29.70
2017,08,22,15,25,29.70
2017,08,22,15,26,29.80
2017,08,22,15,27,29.80
2017,08,22,15,28,29.90
2017,08,22,15,29,29.90
2017,08,22,15,30,29.90
2017,08,22,15,31,29.80
2017,08,22,15,32,29.80
2017,08,22,15,33,29.70
2017,08,22,15,34,29.50
2017,08,22,15,35,29.40
2017,08,22,15,36,29.30
2017,08,22,15,37,29.20
2017,08,22,15,38,29.10
2017,08,22,15,39,29.00
2017,08,22,15,40,28.90
2017,08,22,15,41,28.80
2017,08,22,15,42,28.70
2017,08,22,15,43,28.70
2017,08,22,15,44,28.80
2017,08,22,15,45,28.80
2017,08,22,15,46,28.80
2017,08,22,15,47,28.70
2017,08,22,15,48,28.70
2017,08,22,15,49,28.70
2017,08,22,15,50,28.70
2017,08,22,15,51,28.70
2017,08,22,15,52,28.70
2017,08,22,15,53,28.60
2017,08,22,15,54,28.60
2017,08,22,15,55,28.60
2017,08,22,15,56,28.50
2017,08,22,15,57,28.40
2017,08,22,15,58,28.40
2017,08,22,15,59,28.30
2017,08,22,16,00,28.30
2017,08,22,16,01,28.30
2017,08,22,16,02,28.30
2017,08,22,16,03,28.40
2017,08,22,16,04,28.50
2017,08,22,16,05,28.50
2017,08,22,16,06,28.60
2017,08,22,16,07,28.60
2017,08,22,16,08,28.70
2017,08,22,16,09,28.80
2017,08,22,16,10,28.90
2017,08,22,16,11,29.00
2017,08,22,16,12,29.10
2017,08,22,16,13,29.20
2017,08,22,16,14,29.20
2017,08,22,16,15,29.30
2017,08,22,16,16,29.30
2017,08,22,16,17,29.20
2017,08,22,16,18,29.20
2017,08,22,16,19,29.10
2017,08,22,16,20,29.10
2017,08,22,16,21,29.10
2017,08,22,16,22,29.10
2017,08,22,16,23,29.10
2017,08,22,16,24,29.20
2017,08,22,16,25,29.20
2017,08,22,16,26,29.30
2017,08,22,16,27,29.30
2017,08,22,16,28,29.30
2017,08,22,16,29,29.20
2017,08,22,16,30,29.20
2017,08,22,16,31,29.20
2017,08,22,16,32,29.20
2017,08,22,16,33,29.20
2017,08,22,16,34,29.20
2017,08,22,16,35,29.20
2017,08,22,16,36,29.30
2017,08,22,16,37,29.30
2017,08,22,16,38,29.30
2017,08,22,16,39,29.30
2017,08,22,16,40,29.30
2017,08,22,16,41,29.30
2017,08,22,16,42,29.30
2017,08,22,16,43,29.30
2017,08,22,16,44,29.20
2017,08,22,16,45,29.20
2017,08,22,16,46,29.10
2017,08,22,16,47,29.00
2017,08,22,16,48,28.90
2017,08,22,16,49,28.90
2017,08,22,16,50,28.80
2017,08,22,16,51,28.80
2017,08,22,16,52,28.70
2017,08,22,16,53,28.60
2017,08,22,16,54,28.60
2017,08,22,16,55,28.60
2017,08,22,16,56,28.60
2017,08,22,16,57,28.50
2017,08,22,16,58,28.50
2017,08,22,16,59,28.50
2017,08,22,17,00,28.50
2017,08,22,17,01,28.50
2017,08,22,17,02,28.50
2017,08,22,17,03,28.50
2017,08,22,17,04,28.50
2017,08,22,17,05,28.40
2017,08,22,17,06,28.40
2017,08,22,17,07,28.40
2017,08,22,17,08,28.40
2017,08,22,17,09,28.40
2017,08,22,17,10,28.30
2017,08,22,17,11,28.30
2017,08,22,17,12,28.20
2017,08,22,17,13,28.20
2017,08,22,17,14,28.20
2017,08,22,17,15,28.10
2017,08,22,17,16,28.00
2017,08,22,17,17,27.90
2017,08,22,17,18,27.90
2017,08,22,17,19,27.80